Wind_Speed
39 42 45 47 50 54 54 53 51 49 40 30 23 19 15 9 8 10 10 6 5 10 15 21 24 25 27 32 41 48 52 54 55 57 58 58 59 61 62 64 66 69 69
39 42 45 46 47 51 53 52 51 47 45 32 21 16 13 11 8 6 5 8 12 15 18 20 22 23 22 22 22 28 35 41 48 49 50 52 53 54 61 63 65 69 72
40 43 45 46 44 46 52 52 50 49 47 40 26 13 6 5 2 6 9 13 16 17 17 19 21 21 21 16 17 20 23 25 30 34 36 38 40 41 46 52 48 52 56
41 42 45 46 44 43 49 53 52 50 50 50 39 15 4 4 6 9 14 16 17 15 15 17 20 20 17 14 18 19 20 24 26 29 34 36 36 39 44 43 43 44 48
40 41 43 46 46 45 46 49 51 53 51 53 57 33 15 9 9 12 15 16 17 15 16 15 16 15 10 13 14 14 18 20 25 23 27 31 34 34 37 41 43 44 45
39 40 42 43 45 47 46 47 49 51 54 53 51 52 40 24 16 14 15 15 15 16 17 14 11 11 10 12 14 13 12 16 18 24 25 24 29 31 33 38 40 41 40
38 40 42 42 42 45 46 47 48 50 51 51 50 46 43 44 40 26 15 14 14 13 11 13 11 10 8 8 9 11 7 3 7 13 18 25 25 28 30 33 34 37 37
37 39 42 45 45 43 44 45 46 49 51 51 50 47 45 42 39 40 40 31 20 17 17 13 12 11 11 11 10 10 9 7 5 4 7 14 22 26 26 28 31 33 34
35 36 38 41 46 48 46 45 45 47 49 51 52 51 49 45 41 40 39 37 39 37 26 18 14 12 12 12 15 14 13 10 8 7 6 8 10 14 21 26 29 29 29
32 35 37 38 41 43 47 49 49 47 47 48 49 51 52 51 49 44 39 38 36 35 34 33 33 27 19 15 14 14 13 15 14 13 12 10 10 10 11 13 18 23 26
29 31 34 37 38 41 45 46 47 50 50 48 47 48 49 50 51 52 49 43 38 37 35 32 32 31 27 27 21 15 14 14 13 12 15 14 14 13 13 14 16 17 17
27 28 31 33 36 39 41 44 46 48 47 49 50 48 47 47 49 50 53 53 49 45 41 37 35 32 30 28 25 23 22 19 13 13 13 14 17 20 19 18 19 20 20
27 27 29 30 33 35 38 40 43 45 46 45 46 47 49 47 46 46 47 47 48 48 49 47 45 41 35 31 28 26 25 22 20 17 17 11 11 13 16 16 18 22 25
29 28 28 29 30 32 34 35 38 40 43 44 44 44 45 48 49 49 48 48 48 47 47 48 49 47 43 38 35 32 27 24 23 22 18 16 14 12 9 9 14 16 18
27 29 30 30 30 30 31 32 34 36 38 40 42 43 43 43 44 46 49 52 49 50 48 48 50 52 50 46 41 38 34 31 27 21 22 23 20 15 13 13 12 10 13
24 25 27 28 30 31 31 32 33 34 36 37 39 41 42 44 45 45 47 48 49 49 49 49 48 46 49 52 52 49 44 40 35 30 23 18 20 22 21 18 15 12 11
22 23 24 26 27 30 32 33 33 33 34 35 37 38 39 41 43 45 46 46 47 46 46 46 46 48 49 47 45 45 46 48 43 39 34 28 20 19 18 18 19 17 15
21 22 22 24 26 27 28 30 32 33 34 35 35 35 36 37 38 40 41 43 45 45 45 46 46 46 48 49 50 46 44 45 45 44 39 38 33 29 25 23 20 19 17
24 23 22 22 23 25 26 28 29 31 34 36 37 37 35 34 34 35 36 37 40 42 44 46 47 47 47 47 47 49 47 46 44 42 42 41 40 37 33 29 26 24 22
35 28 24 22 22 22 23 26 28 30 31 33 35 36 36 34 32 31 32 34 36 37 40 42 44 45 46 46 46 46 48 48 48 43 40 39 39 38 37 36 33 31 28
41 35 32 28 25 23 22 23 24 26 28 30 31 31 32 34 34 33 32 31 32 33 35 37 39 41 43 44 45 45 45 46 48 48 47 44 41 38 36 37 38 37 35
39 38 35 34 31 26 24 23 23 24 24 26 27 29 31 32 32 34 35 33 32 31 31 32 33 35 37 39 41 42 43 43 44 45 47 47 45 44 42 40 37 36 36
36 35 34 33 32 31 29 25 23 24 24 24 25 26 28 30 32 33 33 34 36 34 32 30 30 31 31 33 35 37 39 40 41 41 42 42 43 40 43 46 46 43 40
33 32 30 29 30 31 32 30 27 26 25 26 28 28 27 28 30 30 30 31 31 31 33 33 30 27 27 28 29 30 32 35 38 40 40 40 40 42 43 38 38 40 41
29 27 26 25 25 25 24 28 29 30 26 26 28 29 32 31 30 29 30 32 32 32 30 27 29 28 24 24 24 25 26 29 31 35 37 39 40 40 40 42 42 39 39
26 28 26 23 22 22 22 24 24 24 26 29 29 30 29 31 33 33 34 33 32 33 30 29 25 23 25 22 21 21 22 24 25 28 30 33 36 38 39 39 39 41 44
Wind_Direction
1 1 2 2 3 7 9 11 11 15 16 19 24 34 37 47 49 89 97 90 355 328 305 291 286 286 282 271 259 254 252 250 249 250 250 250 251 250 249 248 248 248 247
2 1 3 2 4 10 13 13 14 13 16 16 13 19 33 39 59 69 19 349 334 323 313 307 303 298 294 284 275 261 250 249 249 248 248 248 248 249 249 248 248 249 249
3 4 5 4 4 9 16 16 15 17 19 18 13 355 352 10 354 328 327 321 323 321 310 311 303 298 300 287 295 279 260 253 246 242 246 246 247 246 249 249 249 252 250
8 8 8 7 6 8 13 15 17 17 21 22 18 4 321 281 304 306 310 319 321 319 311 315 308 300 300 285 301 285 272 254 249 244 240 243 242 244 244 246 245 244 245
12 13 13 14 13 13 14 15 18 21 22 26 31 40 40 13 329 314 318 319 318 319 318 326 328 313 295 295 312 299 282 252 243 246 242 241 241 242 244 243 244 243 241
17 18 17 18 19 21 22 23 23 25 28 30 32 41 43 29 8 348 337 336 328 320 317 320 331 332 308 286 307 311 319 265 252 246 244 242 240 239 239 240 240 241 238
21 22 22 22 23 26 29 29 28 29 32 34 35 36 36 39 37 28 3 348 354 3 336 330 329 329 339 314 318 331 325 341 258 260 252 243 242 242 241 242 241 240 238
24 26 29 30 29 28 30 31 31 30 32 34 37 38 37 36 34 38 39 35 20 13 10 356 343 327 316 319 317 330 343 335 308 274 255 248 240 241 242 244 244 242 240
27 27 30 32 34 34 32 31 32 31 34 34 36 38 38 38 37 37 36 38 42 43 37 18 5 343 343 319 306 309 318 317 328 320 293 262 254 241 239 241 242 241 241
28 29 30 33 32 34 37 37 35 34 34 34 34 35 37 39 39 40 39 37 38 38 36 35 37 31 10 356 340 334 319 298 292 287 289 289 281 268 258 249 244 243 242
26 28 30 32 35 35 35 35 35 36 35 34 33 33 34 35 40 40 40 38 38 38 38 36 34 33 30 33 24 3 343 331 326 296 284 286 285 281 275 263 254 252 250
21 25 26 29 31 32 33 34 35 34 34 35 35 34 36 35 36 38 39 40 40 39 37 33 33 32 32 34 32 29 29 27 356 328 305 290 278 270 266 261 259 252 252
23 22 23 23 24 27 29 30 32 33 34 33 35 35 35 36 35 34 33 36 36 36 36 37 37 37 34 30 30 32 29 23 26 25 26 350 309 295 277 270 269 266 265
24 25 22 20 19 20 22 25 28 30 31 33 35 35 35 34 35 35 35 34 35 35 35 34 34 33 35 34 33 33 30 29 28 26 22 21 22 18 344 317 265 260 264
22 25 25 22 19 17 17 19 23 26 30 32 34 36 36 35 33 34 34 37 36 37 35 37 38 38 37 37 35 33 33 33 30 26 29 29 25 16 12 11 8 343 282
14 19 26 28 26 22 20 19 18 21 24 28 31 34 34 34 34 34 33 33 35 36 34 36 37 37 38 39 39 38 36 35 34 33 32 28 31 35 33 29 20 10 11
5 7 14 21 28 28 25 23 23 21 20 23 27 30 31 33 32 32 34 33 32 30 30 31 32 34 35 36 36 34 33 35 37 35 36 37 31 27 25 27 31 29 29
358 2 4 8 13 21 26 26 24 24 23 24 24 25 27 30 32 31 31 32 33 31 30 30 31 32 33 34 37 38 36 36 38 39 39 39 38 37 34 29 25 22 22
8 355 358 2 5 9 13 16 21 23 23 22 23 23 23 23 26 28 29 29 30 31 31 31 30 30 32 34 35 36 37 40 40 40 41 42 42 41 38 37 34 30 27
28 17 357 353 359 2 4 7 11 13 17 19 19 19 19 19 19 19 22 23 25 27 29 30 31 30 29 32 34 36 37 37 40 40 40 38 38 39 39 39 38 36 34
31 30 26 13 359 355 357 0 4 6 9 11 12 14 15 15 15 16 15 16 17 20 23 27 28 29 30 29 32 33 35 35 35 36 38 41 41 40 38 39 39 38 35
34 34 28 26 26 16 4 357 356 358 0 1 2 3 5 8 10 10 10 11 11 12 16 18 24 26 26 28 29 31 31 32 34 35 35 33 33 37 39 39 39 38 37
29 33 33 31 24 24 25 17 5 358 351 349 350 354 357 359 1 2 4 5 4 5 6 10 14 18 21 23 27 27 29 29 33 34 33 35 36 34 31 31 32 35 36
29 33 34 39 37 33 31 26 22 18 11 355 347 345 347 349 349 352 354 354 355 358 359 359 2 9 11 16 18 22 25 27 27 30 31 34 35 33 41 43 40 34 31
25 29 31 36 35 33 31 34 32 26 11 3 360 356 351 347 342 342 341 341 343 343 345 350 351 353 1 6 11 13 16 21 24 24 26 28 30 32 33 33 41 42 46
19 21 24 27 34 33 33 36 30 22 14 12 7 4 358 347 340 340 337 335 332 326 325 328 335 344 345 352 0 4 9 12 16 20 21 23 24 27 30 31 32 32 33
Height
5616 5605 5594 5582 5569 5555 5540 5525 5512 5500 5490 5482 5476 5472 5470 5468 5468 5468 5469 5471 5472 5472 5471 5470 5468 5466 5464 5463 5462 5463 5464 5466 5470 5471 5474 5478 5482 5486 5491 5499 5502 5506 5514
5616 5606 5595 5583 5572 5559 5544 5530 5518 5506 5495 5486 5480 5477 5474 5472 5472 5471 5471 5471 5470 5469 5466 5463 5460 5457 5454 5452 5450 5448 5447 5448 5450 5454 5456 5461 5466 5469 5472 5480 5484 5489 5495
5618 5607 5597 5585 5575 5562 5549 5536 5523 5512 5500 5489 5482 5477 5475 5474 5472 5472 5470 5469 5467 5465 5462 5458 5454 5451 5448 5445 5443 5440 5438 5439 5441 5443 5446 5448 5452 5457 5458 5463 5469 5472 5478
5620 5610 5599 5588 5577 5565 5553 5541 5529 5517 5504 5492 5480 5471 5471 5473 5473 5471 5469 5467 5464 5462 5457 5454 5450 5446 5443 5441 5438 5434 5432 5432 5433 5435 5437 5439 5443 5446 5448 5453 5457 5461 5464
5622 5612 5602 5592 5580 5569 5558 5547 5535 5523 5510 5498 5484 5474 5474 5474 5473 5471 5468 5465 5462 5459 5455 5451 5447 5442 5439 5437 5434 5429 5425 5424 5425 5427 5429 5430 5434 5436 5439 5442 5444 5448 5451
5625 5615 5605 5596 5585 5574 5563 5553 5542 5531 5519 5507 5497 5489 5482 5478 5474 5470 5467 5463 5459 5455 5452 5448 5445 5441 5437 5435 5431 5427 5422 5420 5420 5421 5423 5424 5425 5427 5430 5432 5434 5437 5443
5627 5619 5609 5600 5590 5580 5570 5560 5550 5539 5529 5518 5509 5500 5493 5485 5478 5471 5466 5461 5457 5454 5450 5447 5443 5440 5436 5432 5430 5426 5422 5419 5418 5417 5417 5418 5420 5421 5423 5424 5426 5430 5434
5631 5623 5614 5606 5595 5585 5576 5567 5557 5547 5538 5528 5518 5509 5500 5493 5486 5478 5470 5463 5457 5453 5449 5445 5441 5438 5434 5430 5428 5425 5422 5418 5417 5415 5414 5413 5413 5415 5417 5418 5420 5422 5426
5635 5628 5620 5611 5602 5592 5582 5573 5565 5555 5546 5536 5527 5518 5509 5500 5493 5485 5477 5470 5463 5457 5451 5446 5441 5437 5432 5428 5425 5423 5420 5418 5416 5413 5412 5411 5410 5410 5410 5411 5413 5414 5418
5639 5632 5625 5616 5608 5599 5590 5581 5572 5563 5553 5544 5535 5527 5517 5508 5500 5492 5484 5478 5470 5463 5456 5449 5443 5437 5432 5428 5424 5421 5418 5416 5414 5412 5410 5409 5407 5406 5406 5406 5406 5408 5409
5642 5636 5629 5621 5613 5605 5597 5588 5580 5571 5561 5552 5543 5534 5526 5517 5509 5500 5492 5484 5477 5470 5463 5456 5449 5442 5436 5430 5425 5421 5417 5413 5411 5409 5408 5406 5405 5404 5403 5402 5402 5403 5404
5644 5639 5632 5625 5618 5610 5602 5594 5586 5578 5570 5561 5552 5544 5535 5527 5517 5509 5501 5493 5485 5477 5470 5462 5455 5448 5442 5436 5430 5424 5420 5415 5411 5407 5405 5403 5402 5401 5400 5400 5400 5400 5400
5647 5641 5635 5629 5622 5615 5608 5600 5592 5585 5578 5569 5561 5553 5544 5536 5527 5519 5510 5502 5494 5486 5477 5469 5461 5453 5447 5440 5434 5428 5423 5418 5413 5409 5405 5401 5399 5397 5395 5394 5393 5393 5393
5650 5644 5638 5633 5627 5620 5613 5606 5599 5592 5584 5576 5568 5560 5552 5544 5536 5527 5519 5510 5503 5494 5486 5477 5468 5460 5452 5445 5438 5432 5426 5421 5416 5411 5407 5403 5399 5396 5393 5390 5389 5388 5386
5653 5647 5641 5636 5630 5625 5619 5612 5606 5599 5591 5584 5576 5568 5560 5552 5544 5536 5527 5519 5511 5502 5494 5486 5477 5469 5460 5452 5444 5437 5430 5424 5418 5413 5409 5405 5400 5396 5393 5390 5387 5383 5381
5656 5651 5644 5638 5633 5627 5622 5616 5610 5603 5596 5589 5581 5573 5566 5558 5550 5543 5534 5527 5520 5512 5503 5494 5487 5479 5470 5462 5453 5445 5437 5430 5423 5417 5411 5407 5403 5399 5395 5391 5388 5384 5381
5656 5651 5647 5641 5636 5630 5625 5619 5613 5607 5600 5593 5586 5579 5572 5564 5556 5548 5541 5535 5528 5520 5512 5504 5495 5487 5479 5470 5462 5454 5446 5438 5430 5423 5416 5411 5406 5402 5398 5394 5390 5386 5382
5657 5653 5648 5644 5639 5634 5628 5623 5617 5611 5604 5598 5591 5584 5577 5569 5562 5555 5549 5542 5535 5529 5521 5512 5504 5495 5486 5478 5470 5461 5453 5447 5439 5432 5424 5418 5412 5406 5402 5397 5393 5388 5384
5658 5654 5650 5646 5642 5637 5632 5627 5621 5615 5609 5602 5595 5589 5582 5576 5569 5561 5554 5549 5542 5535 5527 5519 5511 5503 5495 5487 5479 5471 5463 5455 5447 5441 5434 5427 5420 5414 5408 5402 5396 5391 5386
5661 5655 5649 5645 5642 5638 5634 5629 5624 5618 5612 5606 5599 5593 5587 5580 5574 5568 5560 5554 5547 5540 5533 5526 5519 5511 5503 5496 5488 5480 5472 5464 5456 5448 5443 5436 5428 5421 5415 5408 5402 5396 5390
5665 5658 5652 5647 5642 5638 5634 5630 5625 5620 5615 5609 5603 5597 5592 5586 5579 5573 5566 5559 5552 5546 5539 5531 5525 5518 5511 5504 5496 5489 5481 5474 5466 5457 5450 5444 5436 5429 5422 5416 5409 5403 5396
5669 5663 5656 5650 5644 5639 5634 5629 5626 5621 5616 5611 5605 5600 5594 5588 5582 5576 5570 5564 5558 5551 5545 5538 5530 5524 5517 5510 5503 5497 5489 5482 5475 5467 5459 5451 5444 5437 5430 5423 5416 5409 5402
5673 5667 5660 5654 5648 5642 5636 5630 5625 5620 5615 5610 5605 5600 5595 5590 5585 5580 5574 5567 5561 5555 5548 5542 5536 5529 5522 5516 5509 5503 5497 5490 5483 5476 5469 5462 5454 5446 5437 5429 5422 5415 5409
5676 5670 5663 5657 5651 5645 5639 5633 5627 5621 5616 5611 5606 5601 5595 5590 5585 5579 5574 5568 5562 5556 5551 5546 5540 5534 5528 5521 5514 5508 5502 5496 5490 5483 5476 5469 5462 5455 5447 5440 5432 5424 5416
5677 5671 5665 5659 5653 5647 5642 5636 5630 5624 5617 5611 5607 5602 5597 5590 5584 5579 5574 5569 5564 5558 5551 5545 5540 5536 5530 5525 5519 5513 5507 5501 5495 5489 5483 5476 5469 5462 5455 5449 5442 5435 5427
5678 5673 5666 5660 5654 5648 5643 5638 5631 5625 5620 5615 5609 5602 5595 5589 5583 5579 5573 5567 5561 5555 5549 5544 5539 5534 5530 5526 5521 5516 5510 5505 5499 5494 5488 5482 5476 5469 5463 5456 5449 5442 5435